Showing default

ICEYE-X7, 46496

Orbit data source: Space-Track

ICEYE-X7, 46496 is a payload satellite owned by ICEYE (FI) in SSO that was launched on Mon, 28 Sep 2020 UTC via a SOYUZ-2-1B launch vehicle from the Plesetsk Missile And Space Complex (PKMTR). Payload-class satellites include a variety of spacecraft equipped with specific instruments for various scientific and technological missions. These include communications satellites like Starlink; space stations such as the ISS; scientific satellites like the Hubble; Earth observation satellites from companies like Planet Labs, Umbra, and HawkEye 360; GPS; miniature CubeSats for education and research; and military/defense satellites.

Loading next visibility...
Identifier
46496, 2020-068L
Orbit
SSO
Country
Flag of FIFI / FIN
Related business
Manufacturer
ICEYE
Mission
Operational Commercial Radar Imaging
Bus & Motor
ICEYE, Unknown motor
Mass
80 kg wet, 80 kg dry
Launch date (UTC)
2020-09-28 (5 years ago)
Launch vehicle
SOYUZ-2-1B
Launch site
Plesetsk Missile And Space Complex (PKMTR)
Object type
Payload
Rocket body
Debris
Shape & HBR
Box + 1 Pan, 1.6 m
Radar Cross Section
1.837 m², Medium (>0.1 m² and < 1m²)

Expand to show TLE details & history
Last TLE update: 4 hours ago

TLE from 4 hours ago
0 ICEYE-X7
1 46496U 20068L   25288.98595652  .00014136  00000-0  57710-3 0  9997
2 46496  97.7188 241.1453 0011433 101.2550 258.9972 15.24463354277495
Epoch: 2025-10-15T23:39Z
TLE epoch observation values (Epoch: 2025-10-15T23:39:46.643Z)
Latitude
-0.00003°
Longitude
-138.55121°
Altitude
496.993 km
Speed
7.615 km/s
True Right ascension
16h 04m 34s
True Declination
0° 00' 00"
Sunlit
Object was in daylight at epoch
Visualization orbit readout
Latitude
Unknown
Longitude
Unknown
Altitude
Unknown
Speed
Unknown
Apparent Right ascension
Unknown
Apparent Declination
Unknown
Sunlit
N/A
Visualization observer readout
Local Sidereal Time
22:25:36
Azimuth
Unknown
Elevation
Unknown
Doppler factor
Unknown
Orbital elements
Apogee altitude
497.223 km
Perigee altitude
481.519 km
Semi-major axis
6,867.508 km
Eccentricity
0.00114
Inclination
97.7188°
RAAN
241.1453°
Arg. of periapsis
101.255°
True anomaly
258.86863°
Mean anomaly
258.9972°
Eccentric anomaly
258.93291°
Mean motion
3.81368 °/min
Orbital period
94.4 mins
BSTAR
0.0005771
Loading maneuver chart data...
Computing Atmospheric mass density...
Loading historical data...
Loading historical data...
Loading historical data...
Loading historical data...
Loading historical data...
Loading historical data...
Loading historical data...

Documentation

Showing up to 5 results
|